Weather History for Belize, Belize

Change the Weather History Date:

Friday, February 14, 2014

  Actual Average Record
Temperature  
Mean Temperature 75 °F -  
Max Temperature 81 °F 84 °F 87 °F (2004)
Min Temperature 69 °F - 57 °F (2006)
Cooling Degree Days 10    
Growing Degree Days 25 (Base 50)    
Moisture  
Dew Point 67 °F    
Average Humidity 72    
Maximum Humidity 89    
Minimum Humidity 51    
Precipitation  
Precipitation 0.00 in 0.09 in - ()
Sea Level Pressure  
Sea Level Pressure 29.99 in    
Wind  
Wind Speed 5 mph ()    
Max Wind Speed 12 mph    
Max Gust Speed -    
Visibility 8.4 miles    
Events      
Averages and records for this station are not official NWS values.
T = Trace of Precipitation, MM = Missing Value Source: Averaged Metar Reports

Daily Weather History Graph

Daily Weather History Graph

Search for Another Location

Airport:

Trip Planner

Search our weather history database for the weather conditions in past years. The results will help you decide how hot, cold, wet, or windy it might be!

Date:

Astronomy

Feb. 14, 2014 Rise Set
Actual Time 6:20 AM CST 5:54 PM CST
Civil Twilight 5:58 AM CST 6:16 PM CST
Nautical Twilight 5:32 AM CST 6:42 PM CST
Astronomical Twilight 5:07 AM CST 7:07 PM CST
Moon 5:50 PM CST (2/14) 5:52 AM CST (2/14)
Length of Visible Light 12h 18m
Length of Day
11h 34m
Full, 100% of the Moon is Illuminated
Feb 14
Full
Feb 14
Full
Feb 22
Last Quarter
Mar 1
New
Mar 8
First Quarter

Hourly Weather History & Observations

Time (CST) Temp. Heat Index Dew Point Humidity Pressure Visibility Wind Dir Wind Speed Gust Speed Precip Events Conditions
12:00 AM 72 °F - 69 °F 89% 30.00 in 12 mi Calm Calm - -   Mostly Cloudy
3:00 AM 71 °F - 67 °F 82% 29.97 in 12 mi North 11.5 mph - -   Mostly Cloudy
5:00 AM 71.6 °F - 64.4 °F 78% 29.98 in 6.2 mi North 11.5 mph - N/A   Mostly Cloudy
6:00 AM 70 °F - 66 °F 82% 30.00 in 12 mi North 9.2 mph - -   Mostly Cloudy
6:00 AM 69.8 °F - 66.2 °F 88% 29.98 in 6.2 mi North 9.2 mph - N/A   Mostly Cloudy
7:00 AM 69.8 °F - 64.4 °F 83% 30.01 in 6.2 mi NNW 6.9 mph - N/A   Mostly Cloudy
8:00 AM 71.6 °F - 66.2 °F 83% 30.04 in 6.2 mi NNW 3.5 mph - N/A   Mostly Cloudy
9:00 AM 73 °F - - %  in 12 mi NNW 4.6 mph - -  
9:00 AM 73.4 °F - 68.0 °F 83% 30.04 in 6.2 mi NNW 4.6 mph - N/A   Mostly Cloudy
10:00 AM 77.0 °F - 66.2 °F 69% 30.06 in 6.2 mi NNE 5.8 mph - N/A   Partly Cloudy
11:00 AM 78.8 °F - 64.4 °F 61% 30.04 in 6.2 mi NE 5.8 mph - N/A   Mostly Cloudy
12:00 PM 80 °F - 65 °F 51% 30.01 in 12 mi NE 5.8 mph - -  
12:00 PM 80.6 °F 82.3 °F 64.4 °F 58% 30.01 in 6.2 mi NE 5.8 mph - N/A   Scattered Clouds
1:00 PM 82.4 °F 84.6 °F 66.2 °F 58% 29.99 in 6.2 mi NE 6.9 mph - N/A   Partly Cloudy
2:00 PM 82.4 °F 85.4 °F 68.0 °F 62% 29.97 in 6.2 mi East 5.8 mph - N/A   Mostly Cloudy
3:00 PM 81 °F - 67 °F 54% 29.95 in 14 mi East 5.8 mph - -   Partly Cloudy
3:00 PM 80.6 °F 83.2 °F 68.0 °F 65% 29.94 in 6.2 mi East 5.8 mph - N/A   Scattered Clouds
4:00 PM 80.6 °F 83.2 °F 68.0 °F 65% 29.94 in 6.2 mi East 8.1 mph - N/A   Scattered Clouds
5:00 PM 78.8 °F - 68.0 °F 69% 29.95 in 6.2 mi East 5.8 mph - N/A   Partly Cloudy
6:00 PM 77 °F - 69 °F 68% 29.97 in 12 mi ESE 3.5 mph - -   Scattered Clouds
6:00 PM 77.0 °F - 68.0 °F 74% 29.97 in 6.2 mi ESE 3.5 mph - N/A   Partly Cloudy
9:00 PM 73 °F - 69 °F 82% 30.00 in 12 mi ESE 3.5 mph - -   Scattered Clouds